Location: Unspecified
(42.3650°N, 71.1030°W)
Time: 10:57:58
(UTC+00:00)

Courier 1B - Pass Details

Date: 28 June 2024
Orbit: 962 x 1209 km, 28.3° (Epoch: 13 July)

Event Time Altitude Azimuth Distance (km) Brightness Sun altitude
Rises 03:19:28 0° 230° (SW) 3,667 10.3 -21.3°
Enters shadow 03:21:07 - 224° (SW) 3,173 9.9 -21.4°
Reaches altitude 10° 03:22:43 10° 215° (SW) 2,748 - -21.5°
Maximum altitude 03:27:33 21° 168° (SSE) 2,086 - -21.8°
Drops below altitude 10° 03:32:35 10° 122° (ESE) 2,867 - -22.1°
Sets 03:36:04 0° 107° (ESE) 3,870 - -22.3°
